Flag for Germany Weather past 2 weeks in Weil am Rhein, Baden-Württemberg, Germany

Now
53 °F

Overcast.


Feels Like: 48 °F
Forecast: 45 / 55 °F
Wind: 13 mph from West

Location: Bale-Mulhouse

Current Time: Mar 30, 2015 at 7:35:09 PM

Latest Report: Mar 30, 2015 at 6:00 PM


Visibility: 25 mi

Pressure: 29.97 "Hg

Humidity: 54%

Dew point: 36 °F

Location of Weil am RheinLocation

Historic Weather in Weil am Rhein — Graph

°F

Weil am Rhein temperature yesterday

Maximum temperature yesterday: 55 °F (at 7:00 PM)
Minimum temperature yesterday: 47 °F (at 1:00 AM)
Average temperature yesterday: 52 °F

Past Weeks' High & Low Weather Summary

 TemperatureHumidityPressure
High64 °F (Mar 18, 4:00 PM)99% (Mar 19, 8:00 AM)30.32 "Hg (Mar 19, 8:00 AM)
Low31 °F (Mar 28, 4:00 AM)36% (Mar 17, 3:00 PM)29.66 "Hg (Mar 25, 10:00 AM)
Average46 °F73%30.04 "Hg
* Reported Mar 15 5:00 PM — Mar 30 6:00 PM, Weil am Rhein, Weather by CustomWeather, © 2015

Note: Actual official high and low records may vary slightly from our data, if they occured in-between our weather recording intervals... More about our weather records

Advertising

Weil am Rhein weather history for previous 24 hours

 ConditionsComfort  
Time TempWeatherWind HumidityBarometerVisibility
6:00 PM
Mon, Mar 30
53 °FOvercast.13 mph54%29.97 "Hg25 mi
5:00 PM53 °FOvercast.17 mph58%29.94 "Hg19 mi
4:00 PM54 °FOvercast.16 mph62%29.92 "Hg19 mi
3:00 PM53 °FOvercast.16 mph61%29.90 "Hg19 mi
2:00 PM53 °FOvercast.16 mph67%29.88 "Hg19 mi
1:00 PM52 °FOvercast.17 mph72%29.85 "Hg19 mi
12:00 PM52 °FOvercast.15 mph78%29.84 "Hg19 mi
11:00 AM51 °FOvercast.10 mph83%29.80 "Hg16 mi
10:00 AM51 °FOvercast.9 mph86%29.77 "Hg12 mi
9:00 AM49 °FRain. Overcast.18 mph93%29.73 "Hg2 mi
8:00 AM53 °FOvercast.23 mph80%29.68 "Hg11 mi
7:00 AM52 °FOvercast.22 mph81%29.68 "Hg11 mi
6:00 AM52 °FLight rain. Overcast.24 mph82%29.67 "Hg11 mi
5:00 AM52 °FLight rain. Overcast.22 mph82%29.67 "Hg19 mi
4:00 AM52 °FRain. Overcast.21 mph82%29.67 "Hg25 mi
3:00 AM53 °FOvercast.18 mph80%29.70 "Hg37 mi
2:00 AM52 °FLight rain. Overcast.17 mph84%29.72 "Hg16 mi
1:00 AM52 °FRain. Overcast.20 mph82%29.74 "Hg18 mi
12:00 AM52 °FLight rain. Overcast.21 mph83%29.75 "Hg10 mi
11:00 PM
Sun, Mar 29
52 °FLight rain. Overcast.20 mph82%29.77 "Hg10 mi
10:00 PM52 °FLight rain. Overcast.20 mph85%29.79 "Hg9 mi
9:00 PM52 °FLight rain. Overcast.17 mph81%29.79 "Hg8 mi
8:00 PM54 °FLight rain. Overcast.20 mph74%29.78 "Hg12 mi
7:00 PM55 °FLight rain. Overcast.21 mph72%29.81 "Hg19 mi
Weather by CustomWeather, © 2015

See weather overviewHow to use our weather pages